sat.trackr.live / text

‹ back to catalog

IRIS-F2

NORAD 62684 · 2025-009CD

PAYLOAD ACTIVE UNKNOWN

§ Identity

Operator
Country
ROC
Launch date
2025-01-14
Launch site
AFWTR
Launch vehicle
Mass (kg)
RCS (m²)

External: N2YO · Heavens-Above · Gunter

§ Orbital elements

Epoch: 2026-05-25T04:33:00.132768Z

Period
94.36 min
Inclination
97.3892°
Eccentricity
0.0006776
Mean motion
15.26032825 rev/d
Perigee alt
483.0 km
Apogee alt
492.3 km
Semi-major
6,865.8 km
B*
1.7708e-4
RAAN
225.2195°
Arg perigee
79.4189°
Mean anomaly
280.7813°
Rev number
13,295

§ Raw data

IRIS-F21 62684U 25009CD  26145.18958487  .00004487  00000+0  17708-3 0  99982 62684  97.3892 225.2195 0006776  79.4189 280.7813 15.26032825132959

JSON: /api/v1/satellites/62684 · /tle

For live sub-satellite position, see the globe view (requires WebGL).

§ Visibility from observer

Set your observer location to see the next 7 days of passes ≥ 10°. The values pass through the URL so the page stays shareable.

No JS? Fill the form by hand. The geolocation button needs JavaScript.

§ Radio — SatNOGS DB

ModeDescriptionDownlinkUplink
FM Mode S - Transmitter 2.280 GHz
BPSK Mode U - BPSK4k8 400.910 MHz

2 transmitters · refreshed weekly from db.satnogs.org